This demonstration page uses our WeatherBlox Daily Observations layout. Learn more.

Left ArrowRight Arrow

36.17497, -115.13722

Hourly Observations for September 15, 2020

Temp ( °F °C ) Dew Point ( °F °C ) Humidity (%) Winds ( mph kmh ) Pressure ( in mb ) Visibility ( mi km ) Precip ( " mm )
12:53 am 00:53 Clear 81 27.2 39 3.9 22 22 N N/A 30.00 1016 10 16 N/A
1:53 am 01:53 Clear 79 26.1 39 3.9 24 24 W 5 7 30.00 1016 10 16 N/A
2:53 am 02:53 Clear 80 26.7 40 4.4 24 24 W 8 13 30.00 1016 10 16 N/A
3:53 am 03:53 Clear 79 26.1 39 3.9 24 24 W 6 9 30.00 1016 10 16 N/A
4:53 am 04:53 Clear 77 25 38 3.3 24 24 NW 5 7 30.01 1016 10 16 N/A
5:53 am 05:53 Clear 79 26.1 38 3.3 23 23 WNW 8 13 30.02 1017 10 16 N/A
6:53 am 06:53 Sunny 78 25.6 36 2.2 22 22 NW 6 9 30.04 1017 10 16 N/A
7:53 am 07:53 Sunny 81 27.2 38 3.3 21 21 N 3 6 30.06 1018 10 16 N/A
8:53 am 08:53 Sunny 84 28.9 39 3.9 20 20 W 3 6 30.08 1019 10 16 N/A
9:53 am 09:53 Sunny 89 31.7 32 undefined 13 13 E 3 6 30.08 1019 10 16 N/A
10:53 am 10:53 Sunny 94 34.4 33 0.6 12 12 NE 6 9 30.07 1018 10 16 N/A
11:53 am 11:53 Sunny 94 34.4 32 undefined 11 11 E 3 6 30.06 1018 10 16 N/A
12:53 pm 12:53 Sunny 98 36.7 34 1.1 11 11 E 6 9 30.03 1017 10 16 N/A
1:53 pm 13:53 Sunny 99 37.2 37 2.8 12 12 SSE 6 9 30.00 1016 10 16 N/A
2:53 pm 14:53 Sunny 101 38.3 36 2.2 10 10 VRB 5 7 29.96 1015 10 16 N/A
3:53 pm 15:53 Sunny 101 38.3 36 2.2 10 10 VRB 6 9 29.94 1014 10 16 N/A
4:53 pm 16:53 Sunny 100 37.8 36 2.2 11 11 ESE 8 13 29.93 1014 10 16 N/A
5:53 pm 17:53 Sunny 99 37.2 36 2.2 11 11 SSE 5 7 29.93 1014 10 16 N/A
6:53 pm 18:53 Clear 96 35.6 36 2.2 12 12 N N/A 29.93 1014 10 16 N/A
7:53 pm 19:53 Clear 95 35 37 2.8 13 13 N N/A 29.93 1014 10 16 N/A
8:53 pm 20:53 Clear 91 32.8 41 5 17 17 W 7 11 29.95 1014 10 16 N/A
9:53 pm 21:53 Clear 87 30.6 40 4.4 19 19 NW 5 7 29.95 1014 10 16 N/A
10:53 pm 22:53 Clear 86 30 35 1.7 16 16 NW 12 19 29.95 1014 10 16 N/A
11:53 pm 23:53 Clear 88 31.1 35 1.7 15 15 WNW 12 19 29.95 1014 10 16 N/A

Powered by AerisWeather